CZ-2C DEB (43536 NORAD) Tracking and Keplerian Element Data

This shows tracking and keplerian element data for the satellite.

Feedback or suggestion? Click here.




ElementValue
Catalog43536
NameCZ-2C DEB
Epoch Orbit455
Epoch Day219.92315196
Epoch Year2018
RAAN293.7256
Inclination98.2756
Eccentricity0.0257552
Argument of Perigee73.5958
Mean Anonmoly289.3475
Mean Motion15.5818262
Decay Rate0.01042411
L11 43536U 18056H 18219.92315196 .01042411 24360-5 25801-2 0 9999
L22 43536 98.2756 293.7256 0257552 73.5958 289.3475 15.58182620 4557

Live tracking and technical data element details for CZ-2C DEB (NORAD 43536). CZ-2C DEB can be tracked NOW for your location showing map with azimuth and elevation plus other details from your city location.

Track the satellite on the map from your city or location and see movement details for azimuth, elevation, latitude, longitude, range, height, and movement on the map or in text.







IsCatalogInMostPopularTable: catalog: 43536, numindb: 45
Update: records affected: 1



GetName: 43536 CZ-2C DEB

Hit Count: updated at: Fri, 16 Nov 2018 03:00:12 GMT